Year,Month,Day,Hour,Minute,Value (Times are PST for temperature in C)
2007,07,25,00,00,12.30
2007,07,25,00,01,12.20
2007,07,25,00,02,12.20
2007,07,25,00,03,12.10
2007,07,25,00,04,12.10
2007,07,25,00,05,12.10
2007,07,25,00,06,12.00
2007,07,25,00,07,12.00
2007,07,25,00,08,12.00
2007,07,25,00,09,12.00
2007,07,25,00,10,11.90
2007,07,25,00,11,11.90
2007,07,25,00,12,11.90
2007,07,25,00,13,11.90
2007,07,25,00,14,11.90
2007,07,25,00,15,11.90
2007,07,25,00,16,11.90
2007,07,25,00,17,11.90
2007,07,25,00,18,11.90
2007,07,25,00,19,11.90
2007,07,25,00,20,11.90
2007,07,25,00,21,11.90
2007,07,25,00,22,11.90
2007,07,25,00,23,11.80
2007,07,25,00,24,11.80
2007,07,25,00,25,11.80
2007,07,25,00,26,11.80
2007,07,25,00,27,11.80
2007,07,25,00,28,11.80
2007,07,25,00,29,11.70
2007,07,25,00,30,11.70
2007,07,25,00,31,11.70
2007,07,25,00,32,11.70
2007,07,25,00,33,11.70
2007,07,25,00,34,11.70
2007,07,25,00,35,11.70
2007,07,25,00,36,11.60
2007,07,25,00,37,11.60
2007,07,25,00,38,11.60
2007,07,25,00,39,11.60
2007,07,25,00,40,11.60
2007,07,25,00,41,11.60
2007,07,25,00,42,11.60
2007,07,25,00,43,11.60
2007,07,25,00,44,11.60
2007,07,25,00,45,11.60
2007,07,25,00,46,11.60
2007,07,25,00,47,11.60
2007,07,25,00,48,11.60
2007,07,25,00,49,11.60
2007,07,25,00,50,11.60
2007,07,25,00,51,11.60
2007,07,25,00,52,11.60
2007,07,25,00,53,11.60
2007,07,25,00,54,11.60
2007,07,25,00,55,11.60
2007,07,25,00,56,11.60
2007,07,25,00,57,11.60
2007,07,25,00,58,11.60
2007,07,25,00,59,11.60
2007,07,25,01,00,11.60
2007,07,25,01,01,11.60
2007,07,25,01,02,11.60
2007,07,25,01,03,11.60
2007,07,25,01,04,11.60
2007,07,25,01,05,11.60
2007,07,25,01,06,11.60
2007,07,25,01,07,11.70
2007,07,25,01,08,11.70
2007,07,25,01,09,11.70
2007,07,25,01,10,11.70
2007,07,25,01,11,11.70
2007,07,25,01,12,11.70
2007,07,25,01,13,11.70
2007,07,25,01,14,11.70
2007,07,25,01,15,11.70
2007,07,25,01,16,11.70
2007,07,25,01,17,11.70
2007,07,25,01,18,11.70
2007,07,25,01,19,11.70
2007,07,25,01,20,11.70
2007,07,25,01,21,11.70
2007,07,25,01,22,11.70
2007,07,25,01,23,11.70
2007,07,25,01,24,11.70
2007,07,25,01,25,11.70
2007,07,25,01,26,11.80
2007,07,25,01,27,11.80
2007,07,25,01,28,11.80
2007,07,25,01,29,11.80
2007,07,25,01,30,11.80
2007,07,25,01,31,11.80
2007,07,25,01,32,11.80
2007,07,25,01,33,11.80
2007,07,25,01,34,11.90
2007,07,25,01,35,11.90
2007,07,25,01,36,11.90
2007,07,25,01,37,11.90
2007,07,25,01,38,11.90
2007,07,25,01,39,11.90
2007,07,25,01,40,11.90
2007,07,25,01,41,11.90
2007,07,25,01,42,11.90
2007,07,25,01,43,11.90
2007,07,25,01,44,11.90
2007,07,25,01,45,11.90
2007,07,25,01,46,11.90
2007,07,25,01,47,11.90
2007,07,25,01,48,11.90
2007,07,25,01,49,11.90
2007,07,25,01,50,11.90
2007,07,25,01,51,11.90
2007,07,25,01,52,11.90
2007,07,25,01,53,11.90
2007,07,25,01,54,11.90
2007,07,25,01,55,11.90
2007,07,25,01,56,11.90
2007,07,25,01,57,11.90
2007,07,25,01,58,12.00
2007,07,25,01,59,12.00
2007,07,25,02,00,12.00
2007,07,25,02,01,12.00
2007,07,25,02,02,12.00
2007,07,25,02,03,12.00
2007,07,25,02,04,12.00
2007,07,25,02,05,12.00
2007,07,25,02,06,12.00
2007,07,25,02,07,12.00
2007,07,25,02,08,12.00
2007,07,25,02,09,12.00
2007,07,25,02,10,12.00
2007,07,25,02,11,12.00
2007,07,25,02,12,12.00
2007,07,25,02,13,12.00
2007,07,25,02,14,12.00
2007,07,25,02,15,12.00
2007,07,25,02,16,11.90
2007,07,25,02,17,11.90
2007,07,25,02,18,11.90
2007,07,25,02,19,11.90
2007,07,25,02,20,11.90
2007,07,25,02,21,11.90
2007,07,25,02,22,11.90
2007,07,25,02,23,11.80
2007,07,25,02,24,11.80
2007,07,25,02,25,11.80
2007,07,25,02,26,11.80
2007,07,25,02,27,11.80
2007,07,25,02,28,11.80
2007,07,25,02,29,11.80
2007,07,25,02,30,11.80
2007,07,25,02,31,11.80
2007,07,25,02,32,11.80
2007,07,25,02,33,11.80
2007,07,25,02,34,11.80
2007,07,25,02,35,11.80
2007,07,25,02,36,11.80
2007,07,25,02,37,11.80
2007,07,25,02,38,11.70
2007,07,25,02,39,11.70
2007,07,25,02,40,11.70
2007,07,25,02,41,11.70
2007,07,25,02,42,11.70
2007,07,25,02,43,11.70
2007,07,25,02,44,11.70
2007,07,25,02,45,11.60
2007,07,25,02,46,11.60
2007,07,25,02,47,11.60
2007,07,25,02,48,11.60
2007,07,25,02,49,11.60
2007,07,25,02,50,11.60
2007,07,25,02,51,11.60
2007,07,25,02,52,11.60
2007,07,25,02,53,11.60
2007,07,25,02,54,11.60
2007,07,25,02,55,11.60
2007,07,25,02,56,11.60
2007,07,25,02,57,11.50
2007,07,25,02,58,11.40
2007,07,25,02,59,11.40
2007,07,25,03,00,11.40
2007,07,25,03,01,11.40
2007,07,25,03,02,11.40
2007,07,25,03,03,11.40
2007,07,25,03,04,11.40
2007,07,25,03,05,11.40
2007,07,25,03,06,11.40
2007,07,25,03,07,11.40
2007,07,25,03,08,11.40
2007,07,25,03,09,11.40
2007,07,25,03,10,11.30
2007,07,25,03,11,11.30
2007,07,25,03,12,11.30
2007,07,25,03,13,11.30
2007,07,25,03,14,11.30
2007,07,25,03,15,11.20
2007,07,25,03,16,11.20
2007,07,25,03,17,11.20
2007,07,25,03,18,11.20
2007,07,25,03,19,11.20
2007,07,25,03,20,11.10
2007,07,25,03,21,11.10
2007,07,25,03,22,11.10
2007,07,25,03,23,11.10
2007,07,25,03,24,11.10
2007,07,25,03,25,11.10
2007,07,25,03,26,11.10
2007,07,25,03,27,11.10
2007,07,25,03,28,11.10
2007,07,25,03,29,11.10
2007,07,25,03,30,11.10
2007,07,25,03,31,11.10
2007,07,25,03,32,11.10
2007,07,25,03,33,11.10
2007,07,25,03,34,11.10
2007,07,25,03,35,11.10
2007,07,25,03,36,11.10
2007,07,25,03,37,11.10
2007,07,25,03,38,11.00
2007,07,25,03,39,10.90
2007,07,25,03,40,10.90
2007,07,25,03,41,10.90
2007,07,25,03,42,10.90
2007,07,25,03,43,10.90
2007,07,25,03,44,10.90
2007,07,25,03,45,10.90
2007,07,25,03,46,10.90
2007,07,25,03,47,10.90
2007,07,25,03,48,10.90
2007,07,25,03,49,10.90
2007,07,25,03,50,10.90
2007,07,25,03,51,10.90
2007,07,25,03,52,10.90
2007,07,25,03,53,10.90
2007,07,25,03,54,10.80
2007,07,25,03,55,10.80
2007,07,25,03,56,10.80
2007,07,25,03,57,10.80
2007,07,25,03,58,10.80
2007,07,25,03,59,10.70
2007,07,25,04,00,10.70
2007,07,25,04,01,10.70
2007,07,25,04,02,10.70
2007,07,25,04,03,10.70
2007,07,25,04,04,10.70
2007,07,25,04,05,10.60
2007,07,25,04,06,10.60
2007,07,25,04,07,10.60
2007,07,25,04,08,10.60
2007,07,25,04,09,10.60
2007,07,25,04,10,10.60
2007,07,25,04,11,10.60
2007,07,25,04,12,10.60
2007,07,25,04,13,10.60
2007,07,25,04,14,10.60
2007,07,25,04,15,10.60
2007,07,25,04,16,10.60
2007,07,25,04,17,10.60
2007,07,25,04,18,10.60
2007,07,25,04,19,10.60
2007,07,25,04,20,10.50
2007,07,25,04,21,10.40
2007,07,25,04,22,10.40
2007,07,25,04,23,10.40
2007,07,25,04,24,10.40
2007,07,25,04,25,10.40
2007,07,25,04,26,10.40
2007,07,25,04,27,10.40
2007,07,25,04,28,10.40
2007,07,25,04,29,10.40
2007,07,25,04,30,10.30
2007,07,25,04,31,10.30
2007,07,25,04,32,10.30
2007,07,25,04,33,10.30
2007,07,25,04,34,10.30
2007,07,25,04,35,10.30
2007,07,25,04,36,10.30
2007,07,25,04,37,10.20
2007,07,25,04,38,10.20
2007,07,25,04,39,10.20
2007,07,25,04,40,10.20
2007,07,25,04,41,10.20
2007,07,25,04,42,10.20
2007,07,25,04,43,10.10
2007,07,25,04,44,10.10
2007,07,25,04,45,10.10
2007,07,25,04,46,10.10
2007,07,25,04,47,10.10
2007,07,25,04,48,10.10
2007,07,25,04,49,10.10
2007,07,25,04,50,10.10
2007,07,25,04,51,10.10
2007,07,25,04,52,10.10
2007,07,25,04,53,10.10
2007,07,25,04,54,10.10
2007,07,25,04,55,10.00
2007,07,25,04,56,9.90
2007,07,25,04,57,9.90
2007,07,25,04,58,9.90
2007,07,25,04,59,9.90
2007,07,25,05,00,9.90
2007,07,25,05,01,9.90
2007,07,25,05,02,9.90
2007,07,25,05,03,9.90
2007,07,25,05,04,9.90
2007,07,25,05,05,9.90
2007,07,25,05,06,9.90
2007,07,25,05,07,9.90
2007,07,25,05,08,9.90
2007,07,25,05,09,9.90
2007,07,25,05,10,9.90
2007,07,25,05,11,9.90
2007,07,25,05,12,9.90
2007,07,25,05,13,9.90
2007,07,25,05,14,9.90
2007,07,25,05,15,9.90
2007,07,25,05,16,9.90
2007,07,25,05,17,9.90
2007,07,25,05,18,9.90
2007,07,25,05,19,9.90
2007,07,25,05,20,9.90
2007,07,25,05,21,9.90
2007,07,25,05,22,9.90
2007,07,25,05,23,9.90
2007,07,25,05,24,9.80
2007,07,25,05,25,9.80
2007,07,25,05,26,9.80
2007,07,25,05,27,9.80
2007,07,25,05,28,9.80
2007,07,25,05,29,9.80
2007,07,25,05,30,9.80
2007,07,25,05,31,9.80
2007,07,25,05,32,9.80
2007,07,25,05,33,9.80
2007,07,25,05,34,9.80
2007,07,25,05,35,9.80
2007,07,25,05,36,9.80
2007,07,25,05,37,9.80
2007,07,25,05,38,9.80
2007,07,25,05,39,9.80
2007,07,25,05,40,9.80
2007,07,25,05,41,9.80
2007,07,25,05,42,9.70
2007,07,25,05,43,9.70
2007,07,25,05,44,9.70
2007,07,25,05,45,9.70
2007,07,25,05,46,9.70
2007,07,25,05,47,9.70
2007,07,25,05,48,9.70
2007,07,25,05,49,9.70
2007,07,25,05,50,9.70
2007,07,25,05,51,9.70
2007,07,25,05,52,9.70
2007,07,25,05,53,9.70
2007,07,25,05,54,9.70
2007,07,25,05,55,9.70
2007,07,25,05,56,9.70
2007,07,25,05,57,9.70
2007,07,25,05,58,9.70
2007,07,25,05,59,9.70
2007,07,25,06,00,9.70
2007,07,25,06,01,9.70
2007,07,25,06,02,9.70
2007,07,25,06,03,9.70
2007,07,25,06,04,9.70
2007,07,25,06,05,9.70
2007,07,25,06,06,9.70
2007,07,25,06,07,9.70
2007,07,25,06,08,9.70
2007,07,25,06,09,9.70
2007,07,25,06,10,9.70
2007,07,25,06,11,9.70
2007,07,25,06,12,9.70
2007,07,25,06,13,9.70
2007,07,25,06,14,9.80
2007,07,25,06,15,9.80
2007,07,25,06,16,9.80
2007,07,25,06,17,9.90
2007,07,25,06,18,9.90
2007,07,25,06,19,9.90
2007,07,25,06,20,9.90
2007,07,25,06,21,9.90
2007,07,25,06,22,10.00
2007,07,25,06,23,10.10
2007,07,25,06,24,10.10
2007,07,25,06,25,10.10
2007,07,25,06,26,10.10
2007,07,25,06,27,10.10
2007,07,25,06,28,10.10
2007,07,25,06,29,10.10
2007,07,25,06,30,10.10
2007,07,25,06,31,10.10
2007,07,25,06,32,10.10
2007,07,25,06,33,10.10
2007,07,25,06,34,10.10
2007,07,25,06,35,10.10
2007,07,25,06,36,10.10
2007,07,25,06,37,10.10
2007,07,25,06,38,10.10
2007,07,25,06,39,10.10
2007,07,25,06,40,9.90
2007,07,25,06,41,10.00
2007,07,25,06,42,10.10
2007,07,25,06,43,10.10
2007,07,25,06,44,10.10
2007,07,25,06,45,10.10
2007,07,25,06,46,10.10
2007,07,25,06,47,10.10
2007,07,25,06,48,10.10
2007,07,25,06,49,10.10
2007,07,25,06,50,10.20
2007,07,25,06,51,10.20
2007,07,25,06,52,10.20
2007,07,25,06,53,10.20
2007,07,25,06,54,10.20
2007,07,25,06,55,10.30
2007,07,25,06,56,10.30
2007,07,25,06,57,10.30
2007,07,25,06,58,10.30
2007,07,25,06,59,10.30
2007,07,25,07,00,10.30
2007,07,25,07,01,10.30
2007,07,25,07,02,10.30
2007,07,25,07,03,10.30
2007,07,25,07,04,10.40
2007,07,25,07,05,10.40
2007,07,25,07,06,10.50
2007,07,25,07,07,10.60
2007,07,25,07,08,10.60
2007,07,25,07,09,10.70
2007,07,25,07,10,10.80
2007,07,25,07,11,10.90
2007,07,25,07,12,11.00
2007,07,25,07,13,11.10
2007,07,25,07,14,11.20
2007,07,25,07,15,11.30
2007,07,25,07,16,11.30
2007,07,25,07,17,11.40
2007,07,25,07,18,11.40
2007,07,25,07,19,11.50
2007,07,25,07,20,11.60
2007,07,25,07,21,11.70
2007,07,25,07,22,11.80
2007,07,25,07,23,11.90
2007,07,25,07,24,11.90
2007,07,25,07,25,12.00
2007,07,25,07,26,12.00
2007,07,25,07,27,12.00
2007,07,25,07,28,12.00
2007,07,25,07,29,12.00
2007,07,25,07,30,12.00
2007,07,25,07,31,12.00
2007,07,25,07,32,12.00
2007,07,25,07,33,12.00
2007,07,25,07,34,12.00
2007,07,25,07,35,12.00
2007,07,25,07,36,12.00
2007,07,25,07,37,12.00
2007,07,25,07,38,12.00
2007,07,25,07,39,12.10
2007,07,25,07,40,12.20
2007,07,25,07,41,12.20
2007,07,25,07,42,12.20
2007,07,25,07,43,12.20
2007,07,25,07,44,12.20
2007,07,25,07,45,12.20
2007,07,25,07,46,12.20
2007,07,25,07,47,12.30
2007,07,25,07,48,12.30
2007,07,25,07,49,12.30
2007,07,25,07,50,12.30
2007,07,25,07,51,12.30
2007,07,25,07,52,12.30
2007,07,25,07,53,12.40
2007,07,25,07,54,12.40
2007,07,25,07,55,12.50
2007,07,25,07,56,12.60
2007,07,25,07,57,12.80
2007,07,25,07,58,12.90
2007,07,25,07,59,13.00
2007,07,25,08,00,13.00
2007,07,25,08,01,13.10
2007,07,25,08,02,13.20
2007,07,25,08,03,13.20
2007,07,25,08,04,13.30
2007,07,25,08,05,13.30
2007,07,25,08,06,13.30
2007,07,25,08,07,13.40
2007,07,25,08,08,13.50
2007,07,25,08,09,13.50
2007,07,25,08,10,13.60
2007,07,25,08,11,13.60
2007,07,25,08,12,13.70
2007,07,25,08,13,13.70
2007,07,25,08,14,13.70
2007,07,25,08,15,13.70
2007,07,25,08,16,13.90
2007,07,25,08,17,13.90
2007,07,25,08,18,14.00
2007,07,25,08,19,14.00
2007,07,25,08,20,14.10
2007,07,25,08,21,14.20
2007,07,25,08,22,14.20
2007,07,25,08,23,14.30
2007,07,25,08,24,14.40
2007,07,25,08,25,14.60
2007,07,25,08,26,14.60
2007,07,25,08,27,14.60
2007,07,25,08,28,14.70
2007,07,25,08,29,14.70
2007,07,25,08,30,14.70
2007,07,25,08,31,14.70
2007,07,25,08,32,14.80
2007,07,25,08,33,14.80
2007,07,25,08,34,14.80
2007,07,25,08,35,14.90
2007,07,25,08,36,14.90
2007,07,25,08,37,15.00
2007,07,25,08,38,15.00
2007,07,25,08,39,15.00
2007,07,25,08,40,15.00
2007,07,25,08,41,15.10
2007,07,25,08,42,15.10
2007,07,25,08,43,15.10
2007,07,25,08,44,15.20
2007,07,25,08,45,15.30
2007,07,25,08,46,15.30
2007,07,25,08,47,15.30
2007,07,25,08,48,15.40
2007,07,25,08,49,15.50
2007,07,25,08,50,15.50
2007,07,25,08,51,15.60
2007,07,25,08,52,15.60
2007,07,25,08,53,15.70
2007,07,25,08,54,15.80
2007,07,25,08,55,15.90
2007,07,25,08,56,16.00
2007,07,25,08,57,16.10
2007,07,25,08,58,16.00
2007,07,25,08,59,15.80
2007,07,25,09,00,15.80
2007,07,25,09,01,15.60
2007,07,25,09,02,15.50
2007,07,25,09,03,15.40
2007,07,25,09,04,15.30
2007,07,25,09,05,15.30
2007,07,25,09,06,15.30
2007,07,25,09,07,15.30
2007,07,25,09,08,15.30
2007,07,25,09,09,15.30
2007,07,25,09,10,15.40
2007,07,25,09,11,15.40
2007,07,25,09,12,15.30
2007,07,25,09,13,15.30
2007,07,25,09,14,15.30
2007,07,25,09,15,15.20
2007,07,25,09,16,15.20
2007,07,25,09,17,15.10
2007,07,25,09,18,15.00
2007,07,25,09,19,15.00
2007,07,25,09,20,14.90
2007,07,25,09,21,14.90
2007,07,25,09,22,14.80
2007,07,25,09,23,14.80
2007,07,25,09,24,14.70
2007,07,25,09,25,14.60
2007,07,25,09,26,14.60
2007,07,25,09,27,14.60
2007,07,25,09,28,14.60
2007,07,25,09,29,14.60
2007,07,25,09,30,14.60
2007,07,25,09,31,14.60
2007,07,25,09,32,14.60
2007,07,25,09,33,14.60
2007,07,25,09,34,14.60
2007,07,25,09,35,14.60
2007,07,25,09,36,14.60
2007,07,25,09,37,14.50
2007,07,25,09,38,14.50
2007,07,25,09,39,14.50
2007,07,25,09,40,14.50
2007,07,25,09,41,14.50
2007,07,25,09,42,14.60
2007,07,25,09,43,14.50
2007,07,25,09,44,14.50
2007,07,25,09,45,14.40
2007,07,25,09,46,14.40
2007,07,25,09,47,14.20
2007,07,25,09,48,14.20
2007,07,25,09,49,14.20
2007,07,25,09,50,14.20
2007,07,25,09,51,14.20
2007,07,25,09,52,14.20
2007,07,25,09,53,14.10
2007,07,25,09,54,14.10
2007,07,25,09,55,14.10
2007,07,25,09,56,14.10
2007,07,25,09,57,14.10
2007,07,25,09,58,14.10
2007,07,25,09,59,14.20
2007,07,25,10,00,14.20
2007,07,25,10,01,14.20
2007,07,25,10,02,14.20
2007,07,25,10,03,14.20
2007,07,25,10,04,14.20
2007,07,25,10,05,14.20
2007,07,25,10,06,14.20
2007,07,25,10,07,14.30
2007,07,25,10,08,14.30
2007,07,25,10,09,14.30
2007,07,25,10,10,14.20
2007,07,25,10,11,14.30
2007,07,25,10,12,14.40
2007,07,25,10,13,14.50
2007,07,25,10,14,14.50
2007,07,25,10,15,14.60
2007,07,25,10,16,14.60
2007,07,25,10,17,14.70
2007,07,25,10,18,14.80
2007,07,25,10,19,14.80
2007,07,25,10,20,14.90
2007,07,25,10,21,14.90
2007,07,25,10,22,14.90
2007,07,25,10,23,14.90
2007,07,25,10,24,14.90
2007,07,25,10,25,14.90
2007,07,25,10,26,15.00
2007,07,25,10,27,15.00
2007,07,25,10,28,14.90
2007,07,25,10,29,14.80
2007,07,25,10,30,14.80
2007,07,25,10,31,14.70
2007,07,25,10,32,14.60
2007,07,25,10,33,14.70
2007,07,25,10,34,14.70
2007,07,25,10,35,14.80
2007,07,25,10,36,14.70
2007,07,25,10,37,14.60
2007,07,25,10,38,14.60
2007,07,25,10,39,14.60
2007,07,25,10,40,14.60
2007,07,25,10,41,14.60
2007,07,25,10,42,14.50
2007,07,25,10,43,14.50
2007,07,25,10,44,14.50
2007,07,25,10,45,14.60
2007,07,25,10,46,14.60
2007,07,25,10,47,14.60
2007,07,25,10,48,14.60
2007,07,25,10,49,14.60
2007,07,25,10,50,14.70
2007,07,25,10,51,14.70
2007,07,25,10,52,14.70
2007,07,25,10,53,14.70
2007,07,25,10,54,14.70
2007,07,25,10,55,14.70
2007,07,25,10,56,14.70
2007,07,25,10,57,14.70
2007,07,25,10,58,14.60
2007,07,25,10,59,14.50
2007,07,25,11,00,14.50
2007,07,25,11,01,14.40
2007,07,25,11,02,14.40
2007,07,25,11,03,14.30
2007,07,25,11,04,14.20
2007,07,25,11,05,14.20
2007,07,25,11,06,14.30
2007,07,25,11,07,14.30
2007,07,25,11,08,14.30
2007,07,25,11,09,14.40
2007,07,25,11,10,14.50
2007,07,25,11,11,14.60
2007,07,25,11,12,14.70
2007,07,25,11,13,14.80
2007,07,25,11,14,14.80
2007,07,25,11,15,15.00
2007,07,25,11,16,15.00
2007,07,25,11,17,15.00
2007,07,25,11,18,15.00
2007,07,25,11,19,15.00
2007,07,25,11,20,15.00
2007,07,25,11,21,14.90
2007,07,25,11,22,14.90
2007,07,25,11,23,14.90
2007,07,25,11,24,14.90
2007,07,25,11,25,14.90
2007,07,25,11,26,14.90
2007,07,25,11,27,14.90
2007,07,25,11,28,14.90
2007,07,25,11,29,14.90
2007,07,25,11,30,14.90
2007,07,25,11,31,14.90
2007,07,25,11,32,14.90
2007,07,25,11,33,14.90
2007,07,25,11,34,15.00
2007,07,25,11,35,15.10
2007,07,25,11,36,15.10
2007,07,25,11,37,15.10
2007,07,25,11,38,15.20
2007,07,25,11,39,15.20
2007,07,25,11,40,15.30
2007,07,25,11,41,15.30
2007,07,25,11,42,15.30
2007,07,25,11,43,15.30
2007,07,25,11,44,15.30
2007,07,25,11,45,15.30
2007,07,25,11,46,15.30
2007,07,25,11,47,15.30
2007,07,25,11,48,15.20
2007,07,25,11,49,15.20
2007,07,25,11,50,15.20
2007,07,25,11,51,15.30
2007,07,25,11,52,15.30
2007,07,25,11,53,15.30
2007,07,25,11,54,15.30
2007,07,25,11,55,15.30
2007,07,25,11,56,15.40
2007,07,25,11,57,15.50
2007,07,25,11,58,15.60
2007,07,25,11,59,15.70
2007,07,25,12,00,15.80
2007,07,25,12,01,15.90
2007,07,25,12,02,16.00
2007,07,25,12,03,16.00
2007,07,25,12,04,16.00
2007,07,25,12,05,16.10
2007,07,25,12,06,16.10
2007,07,25,12,07,16.00
2007,07,25,12,08,15.90
2007,07,25,12,09,16.00
2007,07,25,12,10,16.10
2007,07,25,12,11,16.10
2007,07,25,12,12,16.10
2007,07,25,12,13,16.00
2007,07,25,12,14,15.90
2007,07,25,12,15,15.90
2007,07,25,12,16,16.00
2007,07,25,12,17,16.10
2007,07,25,12,18,16.10
2007,07,25,12,19,16.00
2007,07,25,12,20,16.00
2007,07,25,12,21,16.00
2007,07,25,12,22,15.90
2007,07,25,12,23,15.90
2007,07,25,12,24,15.80
2007,07,25,12,25,15.80
2007,07,25,12,26,15.80
2007,07,25,12,27,15.80
2007,07,25,12,28,15.80
2007,07,25,12,29,15.90
2007,07,25,12,30,16.00
2007,07,25,12,31,16.10
2007,07,25,12,32,16.10
2007,07,25,12,33,16.10
2007,07,25,12,34,16.10
2007,07,25,12,35,16.10
2007,07,25,12,36,16.10
2007,07,25,12,37,16.10
2007,07,25,12,38,16.10
2007,07,25,12,39,16.20
2007,07,25,12,40,16.20
2007,07,25,12,41,16.30
2007,07,25,12,42,16.50
2007,07,25,12,43,16.60
2007,07,25,12,44,16.60
2007,07,25,12,45,16.60
2007,07,25,12,46,16.60
2007,07,25,12,47,16.70
2007,07,25,12,48,16.70
2007,07,25,12,49,16.70
2007,07,25,12,50,16.70
2007,07,25,12,51,16.70
2007,07,25,12,52,16.80
2007,07,25,12,53,16.90
2007,07,25,12,54,17.00
2007,07,25,12,55,17.10
2007,07,25,12,56,17.20
2007,07,25,12,57,17.30
2007,07,25,12,58,17.30
2007,07,25,12,59,17.30
2007,07,25,13,00,17.30
2007,07,25,13,01,17.30
2007,07,25,13,02,17.10
2007,07,25,13,03,17.00
2007,07,25,13,04,16.80
2007,07,25,13,05,16.70
2007,07,25,13,06,16.60
2007,07,25,13,07,16.60
2007,07,25,13,08,16.60
2007,07,25,13,09,16.70
2007,07,25,13,10,16.80
2007,07,25,13,11,16.90
2007,07,25,13,12,17.00
2007,07,25,13,13,17.20
2007,07,25,13,14,17.30
2007,07,25,13,15,17.30
2007,07,25,13,16,17.30
2007,07,25,13,17,17.40
2007,07,25,13,18,17.40
2007,07,25,13,19,17.40
2007,07,25,13,20,17.40
2007,07,25,13,21,17.40
2007,07,25,13,22,17.40
2007,07,25,13,23,17.40
2007,07,25,13,24,17.50
2007,07,25,13,25,17.60
2007,07,25,13,26,17.70
2007,07,25,13,27,17.70
2007,07,25,13,28,17.80
2007,07,25,13,29,17.90
2007,07,25,13,30,17.90
2007,07,25,13,31,17.90
2007,07,25,13,32,17.90
2007,07,25,13,33,18.00
2007,07,25,13,34,17.90
2007,07,25,13,35,17.90
2007,07,25,13,36,18.00
2007,07,25,13,37,17.90
2007,07,25,13,38,18.10
2007,07,25,13,39,18.10
2007,07,25,13,40,18.20
2007,07,25,13,41,18.20
2007,07,25,13,42,18.10
2007,07,25,13,43,18.00
2007,07,25,13,44,17.90
2007,07,25,13,45,17.90
2007,07,25,13,46,17.90
2007,07,25,13,47,17.80
2007,07,25,13,48,17.80
2007,07,25,13,49,17.80
2007,07,25,13,50,17.90
2007,07,25,13,51,17.90
2007,07,25,13,52,17.90
2007,07,25,13,53,17.90
2007,07,25,13,54,17.90
2007,07,25,13,55,17.90
2007,07,25,13,56,18.00
2007,07,25,13,57,18.10
2007,07,25,13,58,18.20
2007,07,25,13,59,18.20
2007,07,25,14,00,18.30
2007,07,25,14,01,18.30
2007,07,25,14,02,18.40
2007,07,25,14,03,18.40
2007,07,25,14,04,18.40
2007,07,25,14,05,18.40
2007,07,25,14,06,18.40
2007,07,25,14,07,18.30
2007,07,25,14,08,18.30
2007,07,25,14,09,18.40
2007,07,25,14,10,18.40
2007,07,25,14,11,18.40
2007,07,25,14,12,18.40
2007,07,25,14,13,18.20
2007,07,25,14,14,18.20
2007,07,25,14,15,18.20
2007,07,25,14,16,18.30
2007,07,25,14,17,18.30
2007,07,25,14,18,18.40
2007,07,25,14,19,18.40
2007,07,25,14,20,18.40
2007,07,25,14,21,18.40
2007,07,25,14,22,18.30
2007,07,25,14,23,18.30
2007,07,25,14,24,18.20
2007,07,25,14,25,18.20
2007,07,25,14,26,18.20
2007,07,25,14,27,18.20
2007,07,25,14,28,18.20
2007,07,25,14,29,18.20
2007,07,25,14,30,18.10
2007,07,25,14,31,18.00
2007,07,25,14,32,17.90
2007,07,25,14,33,17.90
2007,07,25,14,34,17.90
2007,07,25,14,35,17.90
2007,07,25,14,36,17.90
2007,07,25,14,37,17.80
2007,07,25,14,38,17.80
2007,07,25,14,39,17.80
2007,07,25,14,40,17.70
2007,07,25,14,41,17.70
2007,07,25,14,42,17.70
2007,07,25,14,43,17.70
2007,07,25,14,44,17.70
2007,07,25,14,45,17.80
2007,07,25,14,46,17.80
2007,07,25,14,47,17.80
2007,07,25,14,48,17.90
2007,07,25,14,49,17.90
2007,07,25,14,50,17.90
2007,07,25,14,51,17.90
2007,07,25,14,52,18.10
2007,07,25,14,53,18.20
2007,07,25,14,54,18.20
2007,07,25,14,55,18.20
2007,07,25,14,56,18.20
2007,07,25,14,57,18.20
2007,07,25,14,58,18.20
2007,07,25,14,59,18.20
2007,07,25,15,00,18.20
2007,07,25,15,01,18.20
2007,07,25,15,02,18.30
2007,07,25,15,03,18.30
2007,07,25,15,04,18.30
2007,07,25,15,05,18.40
2007,07,25,15,06,18.40
2007,07,25,15,07,18.40
2007,07,25,15,08,18.40
2007,07,25,15,09,18.40
2007,07,25,15,10,18.50
2007,07,25,15,11,18.50
2007,07,25,15,12,18.60
2007,07,25,15,13,18.70
2007,07,25,15,14,18.70
2007,07,25,15,15,18.80
2007,07,25,15,16,18.80
2007,07,25,15,17,18.90
2007,07,25,15,18,18.80
2007,07,25,15,19,18.70
2007,07,25,15,20,18.70
2007,07,25,15,21,18.70
2007,07,25,15,22,18.70
2007,07,25,15,23,18.70
2007,07,25,15,24,18.80
2007,07,25,15,25,18.80
2007,07,25,15,26,18.90
2007,07,25,15,27,19.00
2007,07,25,15,28,19.10
2007,07,25,15,29,19.20
2007,07,25,15,30,19.40
2007,07,25,15,31,19.40
2007,07,25,15,32,19.50
2007,07,25,15,33,19.60
2007,07,25,15,34,19.60
2007,07,25,15,35,19.80
2007,07,25,15,36,19.80
2007,07,25,15,37,19.90
2007,07,25,15,38,20.10
2007,07,25,15,39,20.10
2007,07,25,15,40,20.10
2007,07,25,15,41,20.10
2007,07,25,15,42,20.10
2007,07,25,15,43,20.10
2007,07,25,15,44,20.10
2007,07,25,15,45,20.10
2007,07,25,15,46,20.10
2007,07,25,15,47,20.10
2007,07,25,15,48,20.20
2007,07,25,15,49,20.20
2007,07,25,15,50,20.20
2007,07,25,15,51,20.20
2007,07,25,15,52,20.20
2007,07,25,15,53,20.20
2007,07,25,15,54,20.20
2007,07,25,15,55,20.20
2007,07,25,15,56,20.20
2007,07,25,15,57,20.20
2007,07,25,15,58,20.20
2007,07,25,15,59,20.20
2007,07,25,16,00,20.20
2007,07,25,16,01,20.20
2007,07,25,16,02,20.20
2007,07,25,16,03,20.10
2007,07,25,16,04,20.10
2007,07,25,16,05,20.10
2007,07,25,16,06,20.20
2007,07,25,16,07,20.20
2007,07,25,16,08,20.20
2007,07,25,16,09,20.20
2007,07,25,16,10,20.30
2007,07,25,16,11,20.30
2007,07,25,16,12,20.30
2007,07,25,16,13,20.30
2007,07,25,16,14,20.30
2007,07,25,16,15,20.30
2007,07,25,16,16,20.20
2007,07,25,16,17,20.20
2007,07,25,16,18,20.20
2007,07,25,16,19,20.20
2007,07,25,16,20,20.10
2007,07,25,16,21,20.00
2007,07,25,16,22,19.90
2007,07,25,16,23,19.90
2007,07,25,16,24,19.80
2007,07,25,16,25,19.90
2007,07,25,16,26,19.90
2007,07,25,16,27,19.90
2007,07,25,16,28,19.90
2007,07,25,16,29,19.90
2007,07,25,16,30,19.90
2007,07,25,16,31,19.90
2007,07,25,16,32,19.90
2007,07,25,16,33,19.90
2007,07,25,16,34,19.90
2007,07,25,16,35,19.90
2007,07,25,16,36,20.00
2007,07,25,16,37,20.10
2007,07,25,16,38,20.20
2007,07,25,16,39,20.20
2007,07,25,16,40,20.30
2007,07,25,16,41,20.40
2007,07,25,16,42,20.50
2007,07,25,16,43,20.50
2007,07,25,16,44,20.50
2007,07,25,16,45,20.50
2007,07,25,16,46,20.50
2007,07,25,16,47,20.50
2007,07,25,16,48,20.50
2007,07,25,16,49,20.40
2007,07,25,16,50,20.30
2007,07,25,16,51,20.20
2007,07,25,16,52,20.20
2007,07,25,16,53,20.00
2007,07,25,16,54,19.90
2007,07,25,16,55,19.80
2007,07,25,16,56,19.80
2007,07,25,16,57,19.70
2007,07,25,16,58,19.60
2007,07,25,16,59,19.60
2007,07,25,17,00,19.50
2007,07,25,17,01,19.40
2007,07,25,17,02,19.40
2007,07,25,17,03,19.40
2007,07,25,17,04,19.30
2007,07,25,17,05,19.30
2007,07,25,17,06,19.20
2007,07,25,17,07,19.10
2007,07,25,17,08,19.10
2007,07,25,17,09,19.10
2007,07,25,17,10,19.00
2007,07,25,17,11,18.90
2007,07,25,17,12,18.80
2007,07,25,17,13,18.70
2007,07,25,17,14,18.70
2007,07,25,17,15,18.70
2007,07,25,17,16,18.70
2007,07,25,17,17,18.70
2007,07,25,17,18,18.60
2007,07,25,17,19,18.60
2007,07,25,17,20,18.60
2007,07,25,17,21,18.60
2007,07,25,17,22,18.60
2007,07,25,17,23,18.60